User: anonymous   Login
Location: Brede
(50.9167°N, 0.6000°E)
Time: 11:23:06
(UTC+00:00)
Language:

Cosmos 1626 - Orbit

View from above orbital plane
View from above orbital plane
View from above satellite
View from above satellite

Ground track
Ground track

The orbit data is extracted from the following two-line orbital elements,

1 15494U 85009A   20299.91277849 +.00001410 +00000-0 +56295-4 0  9991
2 15494 082.4766 100.4160 0003761 080.4207 279.7454 15.24332035955250
Epoch (UTC): 25 October 2020 21:54:24
Eccentricity: 0.0003761
inclination: 82.4766°
perigee height: 490 km
apogee height: 495 km
right ascension of ascending node: 100.4160°
argument of perigee: 80.4207°
revolutions per day: 15.24332035
mean anomaly at epoch: 279.7454°
orbit number at epoch: 95525

The dashed part of the orbit path shows where the satellite is in the earth's shadow,  

DLR